Погода в Кирнасовке

Украина / Винницкая область     48°35′33″N   28°58′48″E
темп.,
°C
ветер,
м/с
пор.,
м/с
влажн.,
%
обл.,
%
осадки,
мм/ч
давл.,
гПа
погр.,
м
16 октября, сб
сб1600:00+7ююв346278 0.0 102163
03:00+8ю2559100 0.0 1019135
06:00+8ю2570100 0.1 1019194
09:00+7ю0185100 0.9 101952
12:00+8ююв0187100 0.7 1020101
15:00+8зсз1284100 0.8 1019191
18:00+8з1188100 0.1 101927
21:00+8зсз2285100 0.1 102049
17 октября, вс
вс1700:00+8с2584100 0.0 1020134
03:00+8с248290 0.0 102091
06:00+5с368914 0.0 1021104
09:00+6с368372 0.0 1022187
12:00+11ссз335812 0.0 1021782
15:00+13сз34475 0.0 10201276
18:00+10сз225642 0.0 102011
21:00+7сз22679 0.0 102118
18 октября, пн
пн1800:00+5сз227155 0.0 102120
03:00+5сз227437 0.0 102123
06:00+4сз3377100 0.0 102147
09:00+6зсз2468100 0.0 1022138
12:00+12зсз574694 0.0 10211001
15:00+13зсз6847100 0.0 10201685
18:00+11зсз5852100 0.0 1020700
21:00+10зсз4857100 0.0 1021465
19 октября, вт
вт1900:00+9зсз5106743 0.1 1021490
03:00+5з498655 0.1 1021172
06:00+7з81482100 0.2 10191107
09:00+5ссз8158265 0.9 1023901
12:00+8ссз810485 0.0 10251368
15:00+11ссз78325 0.0 10251737
18:00+8ссз473899 0.0 1026157
21:00+4ссз38515 0.0 1028171
20 октября, ср
ср2000:00+2ссз336036 0.0 102943
03:00+2сз226826 0.0 103017
06:00+1зюз11720 0.0 103010
09:00+3ю23595 0.0 1030103
12:00+10ю45338 0.0 1028750
15:00+12ю672766 0.0 10251032
18:00+10ю4937100 0.0 1024199
21:00+9ююв514508 0.0 1021333